Flag for Canada Weather past 2 weeks in Inuvik, Northwest Territories, Canada

Now
28 °F

Partly sunny.


Feels Like: 22 °F
Forecast: 15 / 39 °F
Wind: 6 mph from Northeast

Location: Inuvik

Current Time: Apr 18, 2015 at 8:15:16 PM

Latest Report: Apr 18, 2015 at 7:00 PM


Visibility: 15 mi

Pressure: 30.12 "Hg

Humidity: 64%

Dew point: 18 °F

Location of InuvikLocation

Historic Weather in Inuvik — Graph

°F

Inuvik temperature yesterday

Maximum temperature yesterday: 25 °F (at 5:00 PM)
Minimum temperature yesterday: 0 °F (at 7:00 AM)
Average temperature yesterday: 11 °F

Past Weeks' High & Low Weather Summary

 TemperatureHumidityPressure
High30 °F (Apr 9, 5:00 PM)93% (Apr 11, 9:57 AM)30.60 "Hg (Apr 11, 9:57 AM)
Low-17 °F (Apr 4, 6:00 AM)47% (Apr 4, 5:00 PM)29.34 "Hg (Apr 11, 5:00 AM)
Average12 °F75%29.82 "Hg
* Reported Apr 3 7:00 PM — Apr 18 7:00 PM, Inuvik, Weather by CustomWeather, © 2015

Note: Actual official high and low records may vary slightly from our data, if they occured in-between our weather recording intervals... More about our weather records

Advertising

Inuvik weather history for previous 24 hours

 ConditionsComfort  
Time TempWeatherWind HumidityBarometerVisibility
7:00 PM
Sat, Apr 18
28 °FPartly sunny.6 mph64%30.12 "Hg15 mi
6:00 PM28 °FPartly sunny.7 mph59%30.13 "Hg15 mi
5:00 PM27 °FBroken clouds.7 mph59%30.15 "Hg15 mi
4:00 PM25 °FPartly sunny.8 mph59%30.15 "Hg15 mi
3:00 PM23 °FPassing clouds.7 mph58%30.16 "Hg15 mi
2:00 PM21 °FScattered clouds.7 mph63%30.16 "Hg15 mi
1:00 PM19 °FPartly sunny.7 mph63%30.16 "Hg15 mi
12:00 PM14 °FPartly sunny.9 mph67%30.18 "Hg15 mi
11:00 AM12 °FPartly sunny.8 mph67%30.18 "Hg15 mi
10:00 AM10 °FPartly sunny.8 mph72%30.18 "Hg15 mi
9:00 AM9 °FLow clouds.7 mph78%30.20 "Hg15 mi
8:00 AM7 °FOvercast.8 mph85%30.20 "Hg15 mi
7:00 AM9 °FPassing clouds.9 mph85%30.20 "Hg15 mi
6:00 AM10 °FPassing clouds.8 mph85%30.20 "Hg15 mi
5:00 AM10 °FPassing clouds.6 mph85%30.19 "Hg15 mi
4:00 AM9 °FPassing clouds.6 mph85%30.19 "Hg15 mi
3:00 AM9 °FPassing clouds.7 mph85%30.18 "Hg15 mi
2:00 AM9 °FPartly sunny.No wind85%30.18 "Hg15 mi
1:00 AM9 °FScattered clouds.3 mph85%30.16 "Hg15 mi
12:00 AM10 °FScattered clouds.2 mph85%30.16 "Hg15 mi
11:00 PM
Fri, Apr 17
14 °FScattered clouds.2 mph79%30.14 "Hg15 mi
10:00 PM14 °FScattered clouds.5 mph85%30.13 "Hg15 mi
9:00 PM18 °FScattered clouds.2 mph79%30.12 "Hg15 mi
8:00 PM21 °FBroken clouds.6 mph68%30.11 "Hg15 mi
Weather by CustomWeather, © 2015

See weather overviewHow to use our weather pages